Regional Weather Roundup
Issued by NWS

Home | Current Version | Previous Version | Graphics & Text | Print | Product List | Glossary On
Versions: 1 2 3 4 5 6 7 8 9 10 11 12 13 14 15 16 17 18 19 20 21 22 23 24 25 26 27 28 29 30 31 32 33 34 35 36 37 38 39 40 41 42 43 44 45 46 47 48 49 50
000
ASUS44 KMEG 110600
RWRTN
TENNESSEE HOURLY STATE WEATHER ROUNDUP
NATIONAL WEATHER SERVICE MEMPHIS TN
1200 AM CST MON DEC 11 2017

TNZ002-004-019-021-049-052-054-088>092-110700-
WEST TENNESSEE

CITY           SKY/WX    TMP DP  RH WIND       PRES   REMARKS
MEMPHIS INTL   CLEAR     45  31  58 W5        30.18F
NWS MEMPHIS      N/A     36 N/A N/A MISG        N/A
JACKSON        CLEAR     43  30  60 W8        30.17S
DYERSBURG      CLEAR     41  30  65 W6        30.18S
$$

TNZ008-025-027-028-033-062-065-066-110700-
NORTH MIDDLE TENNESSEE

CITY           SKY/WX    TMP DP  RH WIND       PRES   REMARKS
NASHVILLE      CLEAR     42  25  50 CALM      30.17F
CLARKSVILLE    CLEAR     41  24  51 SW6       30.16R
SMYRNA         CLEAR     28  23  81 CALM      30.18F
CROSSVILLE     CLEAR     31  19  61 SW5       30.16F WCI  26
$$

TNZ061-075-076-078-094-096-097-110700-
SOUTH MIDDLE TENNESSEE

CITY           SKY/WX    TMP DP  RH WIND       PRES   REMARKS
$$

TNZ017-018-042-046-047-110700-
NORTHEAST TENNESSEE

CITY           SKY/WX    TMP DP  RH WIND       PRES   REMARKS
TRI CITIES     CLOUDY    24  21  88 CALM      30.16F
$$

TNZ012-013-036-069-073-074-110700-
CENTRAL EAST TENNESSEE

CITY           SKY/WX    TMP DP  RH WIND       PRES   REMARKS
KNOXVILLE      PTCLDY    36  26  67 SW12      30.19S WCI  28
OAK RIDGE      CLEAR     31  24  75 CALM      30.21F
$$

TNZ083-085-099-110700-
SOUTHEAST TENNESSEE

CITY           SKY/WX    TMP DP  RH WIND       PRES   REMARKS
CHATTANOOGA    CLEAR     32  26  78 CALM      30.22F
$$

SKY/WX REPORTED AS FAIR MEANS FEW OR NO CLOUDS BELOW
12 THOUSAND FEET.




USA.gov is the U.S. government's official web portal to all federal, state and local government web resources and services.